Regional Weather Roundup
Issued by NWS

Home | Current Version | Previous Version | Text Only | Print | Product List | Glossary Off
Versions: 1 2 3 4 5 6 7 8 9 10 11 12 13 14 15 16 17 18 19 20 21 22 23 24 25 26 27 28 29 30 31 32 33 34 35 36 37 38 39 40 41 42 43 44 45 46 47 48 49 50

000
ASUS43 KMPX 020510
RWRMN
WEATHER ROUNDUP FOR MINNESOTA
NATIONAL WEATHER SERVICE TWIN CITIES/CHANHASSEN MN
1200 AM CDT THU JUL 02 2015


NOTE: "FAIR" INDICATES FEW OR NO CLOUDS BELOW 12,000 FEET WITH NO
SIGNIFICANT WEATHER AND/OR OBSTRUCTIONS TO VISIBILITY. N/A MEANS
CURRENT SKY AND/OR WEATHER CONDITIONS ARE NOT AVAILABLE.

MNZ060>063-068>070-020600-
   Twin Cities Metro

CITY           SKY/WX    TMP DP  RH WIND       PRES   REMARKS
TWIN CITIES    PTCLDY    62  53  72 CALM      30.01S
ST PAUL        CLEAR     61  55  81 CALM      30.01S
CRYSTAL        CLEAR     59  51  75 CALM      30.00S
EDEN PRAIRIE   CLEAR     59  52  77 CALM      30.00S
$$
MNZ001>005-007-008-013>017-022>024-027-028-020600-
   Northwest Minnesota

CITY           SKY/WX    TMP DP  RH WIND       PRES   REMARKS
HALLOCK        PTCLDY    63  59  88 S6        29.93S
THIEF RVR FALL CLEAR     63  57  82 S7        29.98S
CROOKSTON      PTCLDY    64  59  82 S6        29.97S
FOSSTON        CLEAR     57  54  88 CALM      30.00S
DETROIT LAKES  CLEAR     63  55  77 SW5       30.02S
PARK RAPIDS    CLEAR     63  55  75 SW5       30.00S
$$
MNZ006-009>011-018-025>026-020600-
   North Central Minnesota

CITY           SKY/WX    TMP DP  RH WIND       PRES   REMARKS
BAUDETTE       PTCLDY    60  58  92 CALM      29.96S
INTL FALLS     CLEAR     55  53  93 CALM      29.96F
WASKISH        CLEAR     61  57  88 CALM      29.97S
BIG FORK       PTCLDY    57  55  94 CALM      29.99S
LONGVILLE      PTCLDY    61  61 100 CALM      30.00S FOG
GRAND RAPIDS   CLEAR     57  54  88 S3        30.00S
CRANE LAKE     CLEAR     52  52 100 CALM      30.00S
ORR            CLEAR     61  55  82 CALM      29.97S
COOK           PTCLDY    59  57  94 CALM      30.00S
WALKER         MOCLDY    64  59  86 SW3       30.00S
$$
MNZ012-019>021-037-020600-
   Northeast Minnesota

CITY           SKY/WX    TMP DP  RH WIND       PRES   REMARKS
DULUTH         PTCLDY    58  49  72 CALM      30.02S
HIBBING        PTCLDY    60  56  86 SE5       30.00S
TWO HARBORS    CLEAR     54  48  82 CALM      30.01S
GRAND MARAIS     N/A     50  47  89 CALM      30.01S
G MARAIS ARPRT CLEAR     48  39  71 SW3       30.04S
$$
MNZ029>031-032-039>041-046>048-054>057-064-020600-
   West Central Minnesota

CITY           SKY/WX    TMP DP  RH WIND       PRES   REMARKS
WHEATON        CLEAR     55  54  94 SE6       30.02S
ALEXANDRIA     CLEAR     60  55  83 S7        30.03S
WADENA           N/A     59  55  88 CALM      30.01S
WILLMAR        FAIR      59  54  82 SE3       30.03S
$$
MNZ033>034-036-042>043-049>051-058-059-020600-
   Central Minnesota

CITY           SKY/WX    TMP DP  RH WIND       PRES   REMARKS
ST CLOUD       CLEAR     55  53  93 CALM      30.01S
BRAINERD       PTCLDY    61  55  81 S3        30.02R
BUFFALO        CLEAR     56  51  82 CALM      30.02F
$$
MNZ037-044-045-052-053-020600-
   East Central Minnesota

CITY           SKY/WX    TMP DP  RH WIND       PRES   REMARKS
CAMBRIDGE      FAIR      61  52  72 CALM      30.00R
MOOSE LAKE     CLOUDY    55  54  94 CALM      30.00S
CLOQUET        CLEAR     55  52  88 CALM      30.02S
$$
MNZ071>073-080-081-089-090-097-098-020600-
   Southwest Minnesota

CITY           SKY/WX    TMP DP  RH WIND       PRES   REMARKS
CANBY          CLEAR     58  54  84 SE3       30.02S
MARSHALL       CLEAR     57  50  77 SE6       30.00S
REDWOOD FALLS  CLEAR     57  52  83 SE3       30.01S
WORTHINGTON    CLEAR     57  52  82 E5        30.02R
SLAYTON        CLEAR     58  56  92 CALM      30.02R
$$
MNZ065>067-074>077-082>085-091>093-020600-
   South Central Minnesota

CITY           SKY/WX    TMP DP  RH WIND       PRES   REMARKS
MANKATO        CLEAR     61  48  63 CALM      30.01S
ST JAMES       CLEAR     57  52  82 CALM      30.03R
FAIRMONT       CLEAR     54  48  82 CALM      30.01R
WASECA         CLEAR     52  48  87 E3        30.02S
$$
MNZ078>079-086>088-094>096-020600-
   Southeast Minnesota

CITY           SKY/WX    TMP DP  RH WIND       PRES   REMARKS
ROCHESTER      CLEAR     56  50  80 E6        30.01F
RED WING       CLEAR     55  55 100 N3        30.00F
STANTON        CLEAR     54  52  94 CALM      30.00F
AUSTIN         CLEAR     54  52  94 CALM      30.01S
$$
ABBREVIATIONS USED IN REMARKS
   TC - TEMPERATURES IN CELSIUS
  WCI - WIND CHILL INDEX
   HX - HEAT INDEX
  VSB - VISIBILITY
$$



USA.gov is the U.S. government's official web portal to all federal, state and local government web resources and services.